Flag for Australia Weather past 2 weeks in Alice Springs, Northern Territory, Australia

Now
82 °F

Clear.


Feels Like: 83 °F
Forecast: 73 / 81 °F
Wind: 6 mph from Southwest

Location: Alice Springs Aerodrome

Current Time: Dec 23, 2014 at 12:27:22 AM

Latest Report: Dec 22, 2014 at 11:30 PM


Visibility: N/A

Pressure: 29.86 "Hg

Humidity: 48%

Dew point: 61 °F

Location of Alice SpringsLocation

Historic Weather in Alice Springs — Graph

°F

Alice Springs temperature yesterday

Maximum temperature yesterday: 102 °F (at 1:00 PM)
Minimum temperature yesterday: 81 °F (at 11:00 PM)
Average temperature yesterday: 91 °F

Past Weeks' High & Low Weather Summary

 TemperatureHumidityPressure
High109 °F (Dec 15, 4:00 PM)100% (Dec 18, 7:00 AM)30.07 "Hg (Dec 18, 7:00 AM)
Low64 °F (Dec 14, 5:30 AM)6% (Dec 14, 3:00 PM)29.68 "Hg (Dec 8, 1:00 AM)
Average89 °F31%29.83 "Hg
* Reported Dec 7 11:30 PM — Dec 22 11:30 PM, Alice Springs, Weather by CustomWeather, © 2014

Note: Actual official high and low records may vary slightly from our data, if they occured in-between our weather recording intervals... More about our weather records

Advertising

Alice Springs weather history for previous 24 hours

 ConditionsComfort  
Time TempWeatherWind HumidityBarometerVisibility
11:30 PM
Dec 22
82 °FClear.6 mph48%29.86 "HgN/A
11:00 PM81 °FClear.5 mph58%29.86 "HgN/A
10:30 PM82 °FSprinkles. Passing clouds.6 mph51%29.89 "HgN/A
10:00 PM82 °FPassing clouds.8 mph48%29.89 "HgN/A
9:30 PM84 °FSprinkles. Mostly cloudy.10 mph43%29.86 "HgN/A
9:00 PM86 °FSprinkles. Passing clouds.12 mph40%29.83 "HgN/A
8:30 PM90 °FOvercast.10 mph31%29.80 "HgN/A
8:00 PM90 °FPassing clouds.12 mph36%29.80 "HgN/A
7:30 PM90 °FOvercast.16 mph36%29.80 "HgN/A
7:00 PM90 °FClear.14 mph33%29.77 "HgN/A
6:30 PM91 °FScattered clouds.21 mph32%29.74 "HgN/A
6:00 PM93 °FScattered clouds.16 mph28%29.74 "HgN/A
5:30 PM95 °FCloudy.18 mph23%29.74 "HgN/A
4:30 PM100 °FScattered showers. Clear.10 mph15%29.68 "HgN/A
4:00 PM102 °FPartly sunny.7 mph14%29.68 "HgN/A
3:30 PM102 °FPartly sunny.7 mph16%29.71 "HgN/A
2:30 PM102 °FBroken clouds.12 mph14%29.74 "HgN/A
2:00 PM100 °FBroken clouds.13 mph14%29.74 "HgN/A
1:30 PM102 °FBroken clouds.10 mph15%29.74 "HgN/A
1:00 PM102 °FPassing clouds.10 mph15%29.77 "HgN/A
12:30 PM100 °FBroken clouds.6 mph18%29.77 "HgN/A
12:00 PM100 °FSunny.10 mph20%29.80 "Hg10 mi
11:30 AM97 °FSunny.5 mph22%29.80 "Hg10 mi
11:00 AM97 °FPassing clouds.8 mph23%29.83 "HgN/A
10:30 AM93 °FSunny.3 mph26%29.83 "Hg10 mi
9:30 AM91 °FSunny.13 mph30%29.83 "Hg10 mi
9:00 AM90 °FSunny.14 mph31%29.83 "Hg10 mi
8:30 AM91 °FSunny.16 mph26%29.83 "Hg10 mi
8:00 AM91 °FSunny.10 mph17%29.83 "Hg10 mi
7:30 AM91 °FSunny.3 mph17%29.80 "Hg10 mi
6:30 AM84 °FSunny.5 mph31%29.77 "Hg10 mi
6:00 AM86 °FSunny.5 mph22%29.77 "Hg10 mi
5:30 AM86 °FSunny.9 mph22%29.77 "HgN/A
5:00 AM88 °FClear.13 mph18%29.74 "HgN/A
4:30 AM84 °FClear.5 mph23%29.74 "HgN/A
4:00 AM82 °FClear.5 mph26%29.74 "HgN/A
3:30 AM84 °FClear.5 mph29%29.74 "HgN/A
3:00 AM86 °FClear.3 mph24%29.74 "HgN/A
2:30 AM88 °FClear.5 mph22%29.74 "HgN/A
1:30 AM88 °FClear.7 mph18%29.77 "HgN/A
12:30 AM88 °FClear.7 mph18%29.77 "HgN/A
12:00 AM88 °FClear.8 mph18%29.77 "HgN/A
Weather by CustomWeather, © 2014

See weather overviewHow to use our weather pages